Hourly Data Report for February 08, 2004

SHERBROOKE A
QUEBEC

45°26'00.000" N
71°41'00.000" W
241.40 m
7028124
71610
YSC

Download Data

Hourly Data (February 2004)
Hourly Data Report for February 8, 2004
TIME
LST
Temp Definition
°C
Dew Point Definition
°C
Rel Hum Definition
%
Precip. Amount Definition
mm

Wind Dir Definition
10's deg

Wind Spd Definition
km/h
Visibility Definition
km
Stn Press Definition
kPa
Hmdx Definition


Wind Chill Definition


Weather Definition


00:00 -10.8 -15.0 71   30 26 6.4 97.80   -20 Snow
01:00 -13.2 -17.1 72   29 30 1.9 97.92   -24 Snow
02:00 -14.6 -18.6 72   29 28 4.8 98.00   -25  
03:00 -16.7 -20.7 71   28 30 6.4 98.12   -28  
04:00 -17.4 -21.3 72   27 24 6.4 98.24   -28  
05:00 -17.8 -21.9 70   27 22 15.0 98.39   -28  
06:00 -18.9 -23.3 68   27 19 15.0 98.53   -29  
07:00 -19.5 -23.8 69   27 22 15.0 98.67   -30  
08:00 -19.7 -24.0 69   28 26 24.1 98.79   -31 Mainly Clear
09:00 -19.1 -25.0 60   28 24 24.1 98.91   -30 Mainly Clear
10:00 -18.7 -25.3 56   28 20 24.1 99.02   -29 Mostly Cloudy
11:00 -17.7 -25.4 51   29 22 24.1 99.03   -28 Mainly Clear
12:00 -16.3 -23.9 52   28 20 24.1 99.05   -26 Mainly Clear
13:00 -16.0 -23.7 52   28 32 24.1 99.08   -28 Mainly Clear
14:00 -15.0 -23.4 49   26 20 24.1 99.12   -24 Mainly Clear
15:00 -15.0 -23.6 48   26 19 24.1 99.18   -24 Mainly Clear
16:00 -14.6 -23.2 48   26 19 24.1 99.21   -23 Mainly Clear
17:00 -15.0 -22.5 53   23 7 24.1 99.23   -20 Mainly Clear
18:00 -15.4 -21.4 60   15 6 9.7 99.22   -20 Snow
19:00 -15.1 -21.0 61   22 6 15.0 99.22   -19  
20:00 -16.2 -21.1 66   17 4 15.0 99.23   -19  
21:00 -15.4 -20.8 63     0 15.0 99.21      
22:00 -16.2 -21.0 66   1 4 15.0 99.19   -19  
23:00 -15.0 -19.8 67     0 15.0 99.15      

Notes on Data Quality.

Legend

  • E = Estimated
  • M = Missing
  • NA = Not Available*
  • [empty] = Indicates an unobserved value
Date modified: